GW1821 Weather Reports


Display with metric or nautical units.
time (UTC)temp
F
wind
direction
speed
MPH
gust
MPH
rain 1hr
in
rain 24hr
in
rain mn
in
humidity
%
barometer
mb
20260904163248 75 44 2.0 6.0 0.00 0.00 0.00 91 1010.5
20260904162739 75 32 2.0 5.0 0.00 0.00 0.00 91 1010.4
20260904162238 74 57 2.0 7.0 0.00 0.00 0.00 91 1010.3
20260904161736 74 27 3.0 7.0 0.00 0.00 0.00 91 1010.2
20260904161239 74 36 2.0 5.0 0.00 0.00 0.00 91 1010.2
20260904160732 74 61 2.0 9.0 0.00 0.00 0.00 92 1010.1
20260904160216 74 52 2.0 9.0 0.00 0.00 0.00 92 1010.1
20260904155717 74 25 1.0 7.0 0.00 0.00 0.00 92 1010.1
20260904155214 74 347 2.0 8.0 0.00 0.00 0.00 92 1010.1
20260904154933 74 25 3.0 8.0 0.00 0.00 0.00 92 1010.1
20260904154201 74 325 2.0 6.0 0.00 0.00 0.00 92 1010.0
20260904153658 74 346 2.0 7.0 0.00 0.00 0.00 92 1009.9
20260904153153 74 26 2.0 7.0 0.00 0.00 0.00 93 1009.9
20260904152654 74 355 1.0 6.0 0.00 0.00 0.00 93 1009.8
20260904152152 73 15 1.0 5.0 0.00 0.00 0.00 93 1009.8
20260904151653 73 15 3.0 8.0 0.00 0.00 0.00 93 1009.6
20260904151410 73 327 3.0 8.0 0.00 0.00 0.00 93 1009.6
20260904150652 73 340 2.0 5.0 0.00 0.00 0.00 93 1009.5
20260904150150 73 333 2.0 5.0 0.00 0.00 0.00 93 1009.5
20260904145905 73 317 2.0 5.0 0.00 0.00 0.00 93 1009.5
20260904145146 73 322 2.0 5.0 0.00 0.00 0.00 93 1009.4
20260904144643 73 338 1.0 4.0 0.00 0.00 0.00 93 1009.3
20260904144140 72 26 1.0 3.0 0.00 0.00 0.00 93 1009.3
20260904143628 72 35 1.0 3.0 0.00 0.00 0.00 93 1009.3
20260904143131 72 40 1.0 3.0 0.00 0.00 0.00 93 1009.2
20260904142602 72 46 0.0 2.0 0.00 0.00 0.00 94 1009.1
20260904142058 72 46 0.0 2.0 0.00 0.00 0.00 94 1009.0
20260904141556 71 47 0.0 1.0 0.00 0.00 0.00 94 1008.9
20260904141318 71 46 0.0 0.0 0.00 0.00 0.00 94 1008.7
20260904140552 71 47 0.0 1.0 0.00 0.00 0.00 94 1008.7
20260904140038 71 47 0.0 2.0 0.00 0.00 0.00 94 1008.8
20260904135524 70 47 0.0 2.0 0.00 0.00 0.00 94 1008.7
20260904135009 70 34 0.0 2.0 0.00 0.00 0.00 94 1008.7
20260904134518 70 28 0.0 1.0 0.00 0.00 0.00 94 1008.8
20260904134010 70 28 0.0 1.0 0.00 0.00 0.00 94 1008.8
20260904133731 70 28 0.0 1.0 0.00 0.00 0.00 94 1008.8
20260904133000 70 28 0.0 1.0 0.00 0.00 0.00 94 1008.8
20260904132442 70 28 0.0 3.0 0.00 0.00 0.00 94 1008.8
20260904131932 70 28 0.0 3.0 0.00 0.00 0.00 94 1008.9
20260904131426 69 12 0.0 3.0 0.00 0.00 0.00 94 1008.8
20260904130922 69 12 1.0 3.0 0.00 0.00 0.00 94 1008.8
20260904130411 69 12 1.0 4.0 0.00 0.00 0.00 94 1008.9
20260904125902 69 12 1.0 4.0 0.00 0.00 0.00 93 1008.9
20260904125348 69 9 1.0 4.0 0.00 0.00 0.00 93 1008.8
20260904124836 69 28 0.0 4.0 0.00 0.00 0.00 93 1008.6
20260904124328 69 355 1.0 3.0 0.00 0.00 0.00 93 1008.7
20260904124044 69 355 1.0 4.0 0.00 0.00 0.00 93 1008.6
20260904123323 69 5 1.0 4.0 0.00 0.00 0.00 93 1008.7
20260904123043 69 299 1.0 3.0 0.00 0.00 0.00 92 1008.5
20260904122320 69 336 1.0 4.0 0.00 0.00 0.00 92 1008.5
20260904121811 70 34 1.0 4.0 0.00 0.00 0.00 92 1008.3
20260904121312 70 342 1.0 4.0 0.00 0.00 0.00 92 1008.2
20260904120807 70 355 1.0 5.0 0.00 0.00 0.00 92 1008.2
20260904120308 70 5 1.0 5.0 0.00 0.00 0.00 92 1008.2
20260904115750 70 122 0.0 3.0 0.00 0.00 0.00 91 1008.2
20260904115250 70 19 0.0 3.0 0.00 0.00 0.00 92 1008.1
20260904114735 70 19 1.0 4.0 0.00 0.00 0.00 91 1008.1
20260904114235 70 68 1.0 4.0 0.00 0.00 0.00 91 1008.0
20260904113733 70 68 1.0 2.0 0.00 0.00 0.00 91 1008.0
20260904113217 70 46 1.0 3.0 0.00 0.00 0.00 91 1007.9
20260904112712 70 45 1.0 3.0 0.00 0.00 0.00 91 1007.8
20260904112214 70 46 0.0 3.0 0.00 0.00 0.00 91 1007.7
20260904111651 70 26 0.0 2.0 0.00 0.00 0.00 91 1007.8
20260904111101 70 26 0.0 1.0 0.00 0.00 0.00 91 1007.7
20260904110748 70 26 0.0 2.0 0.00 0.00 0.00 91 1007.7
20260904110000 71 26 0.0 2.0 0.00 0.00 0.00 91 1007.8
20260904105449 71 26 0.0 2.0 0.00 0.00 0.00 92 1007.8
20260904104935 71 26 1.0 4.0 0.00 0.00 0.00 92 1007.8
20260904104646 71 41 1.0 4.0 0.00 0.00 0.00 92 1007.9
20260904103921 71 103 1.0 3.0 0.00 0.00 0.00 92 1007.9
20260904103522 71 11 0.0 4.0 0.00 0.00 0.00 92 1007.8
20260904102418 72 47 1.0 4.0 0.00 0.00 0.00 93 1007.8
20260904101912 72 36 1.0 4.0 0.00 0.00 0.00 93 1007.8
20260904101406 72 40 1.0 5.0 0.00 0.00 0.00 93 1007.8
20260904100906 72 117 1.0 5.0 0.00 0.00 0.00 93 1007.8
20260904100616 73 34 1.0 6.0 0.00 0.00 0.00 93 1007.7
20260904095856 73 34 1.0 6.0 0.00 0.00 0.00 93 1007.7
20260904095346 73 31 1.0 6.0 0.00 0.00 0.00 94 1007.7
20260904094847 73 44 1.0 6.0 0.00 0.00 0.00 94 1007.7
20260904094346 73 67 0.0 4.0 0.00 0.00 0.00 94 1007.6
20260904093810 73 40 1.0 5.0 0.00 0.00 0.00 94 1007.6
20260904093526 73 40 1.0 6.0 0.00 0.00 0.00 94 1007.8
20260904092740 73 67 1.0 6.0 0.00 0.00 0.00 94 1007.4
20260904092240 73 49 1.0 5.0 0.00 0.00 0.00 94 1007.9
20260904091741 73 5 1.0 4.0 0.00 0.00 0.00 93 1007.4
20260904091500 73 5 1.0 5.0 0.00 0.00 0.00 93 1007.7
20260904090721 73 27 1.0 4.0 0.00 0.00 0.00 93 1007.8
20260904090217 73 5 2.0 5.0 0.00 0.00 0.00 93 1007.8
20260904085711 73 314 2.0 5.0 0.00 0.00 0.00 93 1007.7
20260904085211 73 345 1.0 5.0 0.00 0.00 0.00 93 1007.8
20260904084711 73 274 2.0 10.0 0.00 0.00 0.00 93 1007.3
20260904084200 73 320 2.0 10.0 0.00 0.00 0.00 93 1007.6
20260904083931 73 44 0.0 3.0 0.00 0.00 0.00 92 1007.1
20260904083150 73 44 0.0 0.0 0.00 0.00 0.00 92 1006.9
20260904082648 73 44 0.0 1.0 0.00 0.00 0.00 92 1006.8
20260904082148 73 44 0.0 1.0 0.00 0.00 0.00 92 1006.8
20260904081642 74 44 0.0 0.0 0.00 0.00 0.00 92 1006.8
20260904081116 74 44 0.0 0.0 0.00 0.00 0.00 92 1006.8
20260904080612 74 44 0.0 0.0 0.00 0.00 0.00 92 1006.8
20260904080317 74 44 0.0 0.0 0.00 0.00 0.00 92 1006.8
20260904080045 74 44 0.0 0.0 0.00 0.00 0.00 92 1006.8
20260904075034 74 44 0.0 0.0 0.00 0.00 0.00 91 1006.8
20260904074528 74 44 0.0 0.0 0.00 0.00 0.00 91 1006.8
20260904074242 74 44 0.0 0.0 0.00 0.00 0.00 91 1006.7
20260904073512 74 44 0.0 0.0 0.00 0.00 0.00 91 1006.8
20260904073005 74 44 0.0 1.0 0.00 0.00 0.00 91 1006.7
20260904072509 74 44 0.0 1.0 0.00 0.00 0.00 91 1006.7
20260904072005 74 44 0.0 1.0 0.00 0.00 0.00 91 1006.7
20260904071500 74 44 0.0 1.0 0.00 0.00 0.00 90 1006.8
20260904071216 75 44 0.0 1.0 0.00 0.00 0.00 90 1006.8
20260904070452 75 44 0.0 0.0 0.00 0.00 0.00 90 1006.9
20260904065941 75 44 0.0 1.0 0.00 0.00 0.00 90 1006.8
20260904065406 75 44 0.0 1.0 0.00 0.00 0.00 90 1006.9
20260904064906 75 44 0.0 1.0 0.00 0.00 0.00 90 1006.9
20260904064353 75 44 0.0 2.0 0.00 0.00 0.00 90 1006.9
20260904064117 75 44 0.0 2.0 0.00 0.00 0.00 90 1006.9
20260904063345 75 44 0.0 1.0 0.00 0.00 0.00 90 1006.9
20260904062840 75 44 0.0 1.0 0.00 0.00 0.00 90 1007.0
20260904062543 75 44 0.0 1.0 0.00 0.00 0.00 89 1006.9
20260904061825 75 44 0.0 1.0 0.00 0.00 0.00 89 1006.9
20260904061315 75 44 0.0 1.0 0.00 0.00 0.00 89 1006.9
20260904060811 75 44 0.0 1.0 0.00 0.00 0.00 89 1007.0
20260904060312 75 44 0.0 1.0 0.00 0.00 0.00 89 1007.0
20260904060037 75 44 0.0 1.0 0.00 0.00 0.00 89 1007.0
20260904055525 75 44 0.0 1.0 0.00 0.00 0.00 88 1007.0
20260904054804 76 70 0.0 1.0 0.00 0.00 0.00 88 1007.0
20260904054519 76 83 0.0 1.0 0.00 0.00 0.00 88 1007.0
20260904053735 76 84 0.0 2.0 0.00 0.00 0.00 88 1006.9
20260904053216 76 89 0.0 2.0 0.00 0.00 0.00 88 1007.0
20260904052711 76 88 0.0 1.0 0.00 0.00 0.00 87 1007.0
20260904052154 76 88 0.0 1.0 0.00 0.00 0.00 87 1006.9
20260904052132 76 88 0.0 1.0 0.00 0.00 0.00 87 1006.9
20260904051117 76 88 0.0 1.0 0.00 0.00 0.00 87 1006.8
20260904050611 76 88 0.0 1.0 0.00 0.00 0.00 87 1006.8
20260904050112 76 88 0.0 1.0 0.00 0.00 0.00 87 1006.8
20260904045844 76 88 0.0 2.0 0.00 0.00 0.00 87 1006.9
20260904045104 76 88 0.0 2.0 0.00 0.00 0.00 87 1006.8
20260904044602 77 88 0.0 1.0 0.00 0.00 0.00 86 1006.8
20260904044104 77 89 0.0 2.0 0.00 0.00 0.00 86 1006.8
20260904043556 77 89 1.0 2.0 0.00 0.00 0.00 86 1006.8
20260904043047 77 88 0.0 2.0 0.00 0.00 0.00 86 1006.7
20260904042538 77 88 0.0 2.0 0.00 0.00 0.00 85 1006.9
20260904042040 77 88 0.0 2.0 0.00 0.00 0.00 85 1006.7
20260904041531 78 105 0.0 0.0 0.00 0.00 0.00 85 1006.7
20260904041017 78 105 0.0 0.0 0.00 0.00 0.00 84 1006.8
20260904040459 78 105 0.0 1.0 0.00 0.00 0.00 84 1006.8
20260904035952 78 105 0.0 1.0 0.00 0.00 0.00 84 1006.8
20260904035455 78 105 0.0 1.0 0.00 0.00 0.00 84 1006.7
20260904035156 79 105 0.0 1.0 0.00 0.00 0.00 83 1006.6
20260904034430 79 105 0.0 1.0 0.00 0.00 0.00 83 1006.6
20260904033926 79 105 0.0 1.0 0.00 0.00 0.00 83 1006.6
20260904033904 79 105 0.0 2.0 0.00 0.00 0.00 83 1006.6
20260904032911 79 105 0.0 2.0 0.00 0.00 0.00 82 1006.7
20260904032408 80 128 0.0 2.0 0.00 0.00 0.00 82 1006.6
20260904031903 80 127 1.0 6.0 0.00 0.00 0.00 82 1006.6
20260904031356 80 153 2.0 7.0 0.00 0.00 0.00 82 1006.5
20260904031056 80 96 3.0 7.0 0.00 0.00 0.00 81 1006.4
20260904030339 80 140 3.0 10.0 0.00 0.00 0.00 81 1006.3
20260904025835 80 146 3.0 10.0 0.00 0.00 0.00 81 1006.4
20260904025333 80 157 2.0 8.0 0.00 0.00 0.00 81 1006.4
20260904024831 80 134 2.0 7.0 0.00 0.00 0.00 80 1006.4
20260904024333 80 144 2.0 8.0 0.00 0.00 0.00 80 1006.5
20260904023827 80 157 2.0 8.0 0.00 0.00 0.00 80 1006.4
20260904023323 80 130 2.0 9.0 0.00 0.00 0.00 80 1006.4
20260904022821 81 60 2.0 9.0 0.00 0.00 0.00 79 1006.3
20260904022317 81 132 2.0 9.0 0.00 0.00 0.00 79 1006.3
20260904021814 81 157 2.0 6.0 0.00 0.00 0.00 79 1006.4
20260904021314 81 193 1.0 5.0 0.00 0.00 0.00 79 1006.4
20260904020812 81 165 2.0 7.0 0.00 0.00 0.00 79 1006.4
20260904020309 81 164 2.0 7.0 0.00 0.00 0.00 79 1006.3
20260904015805 81 149 1.0 5.0 0.00 0.00 0.00 79 1006.4
20260904015307 81 166 1.0 5.0 0.00 0.00 0.00 78 1006.4
20260904014806 81 157 0.0 2.0 0.00 0.00 0.00 78 1006.5
20260904014307 81 175 0.0 2.0 0.00 0.00 0.00 78 1006.4
20260904013803 82 175 0.0 2.0 0.00 0.00 0.00 78 1006.4
20260904013303 82 175 0.0 1.0 0.00 0.00 0.00 78 1006.4
20260904012753 82 175 0.0 1.0 0.00 0.00 0.00 78 1006.4
20260904012245 82 165 0.0 1.0 0.00 0.00 0.00 78 1006.3
20260904011738 82 166 0.0 1.0 0.00 0.00 0.00 77 1006.3
20260904011239 82 180 0.0 1.0 0.00 0.00 0.00 77 1006.2
20260904010731 83 180 0.0 1.0 0.00 0.00 0.00 77 1006.2
20260904010216 83 178 0.0 1.0 0.00 0.00 0.00 77 1006.2
20260904005700 83 178 0.0 3.0 0.00 0.00 0.00 76 1006.1
20260904005159 83 171 0.0 3.0 0.00 0.00 0.00 77 1006.2
20260904004652 83 165 0.0 4.0 0.00 0.00 0.00 75 1006.1
20260904004150 83 165 0.0 4.0 0.00 0.00 0.00 76 1006.0
20260904003651 83 165 0.0 4.0 0.00 0.00 0.00 75 1006.0
20260904003139 83 167 0.0 3.0 0.00 0.00 0.00 75 1006.1
20260904002642 84 167 0.0 5.0 0.00 0.00 0.00 74 1006.0
20260904002128 84 168 1.0 4.0 0.00 0.00 0.00 73 1006.1
20260904001630 84 160 1.0 6.0 0.00 0.00 0.00 73 1006.1
20260904001125 84 163 1.0 6.0 0.00 0.00 0.00 72 1006.1
20260904000612 84 163 1.0 6.0 0.00 0.00 0.00 72 1006.1
20260904000112 84 148 1.0 6.0 0.00 0.00 0.00 72 1006.1
20260903235836 84 164 1.0 5.0 0.00 0.00 0.00 71 1006.1
20260903235111 85 168 2.0 5.0 0.00 0.00 0.00 71 1006.0
20260903234610 85 159 2.0 8.0 0.00 0.00 0.00 70 1006.0
20260903234111 85 144 2.0 10.0 0.00 0.00 0.00 69 1006.0
20260903233834 85 180 2.0 10.0 0.00 0.00 0.00 68 1005.9
20260903233107 85 135 2.0 7.0 0.00 0.00 0.00 68 1005.8
20260903232556 85 148 3.0 7.0 0.00 0.00 0.00 68 1005.7
20260903232057 85 146 3.0 11.0 0.00 0.00 0.00 68 1005.6
20260903231552 85 145 3.0 11.0 0.00 0.00 0.00 68 1005.6
20260903231533 86 169 3.0 12.0 0.00 0.00 0.00 68 1005.5
20260903230542 86 136 3.0 12.0 0.00 0.00 0.00 67 1005.5
20260903230038 86 148 3.0 10.0 0.00 0.00 0.00 67 1005.5
20260903225534 86 141 2.0 7.0 0.00 0.00 0.00 67 1005.3
20260903225034 86 153 2.0 8.0 0.00 0.00 0.00 67 1005.4
20260903224734 86 91 3.0 13.0 0.00 0.00 0.00 68 1005.5
20260903224012 86 85 2.0 13.0 0.00 0.00 0.00 68 1005.7
20260903223725 85 153 2.0 6.0 0.00 0.00 0.00 68 1005.6
20260903223008 85 122 2.0 8.0 0.00 0.00 0.00 69 1005.6
20260903222509 85 151 2.0 8.0 0.00 0.00 0.00 70 1005.7
20260903222005 85 147 2.0 7.0 0.00 0.00 0.00 73 1005.7
20260903221505 85 184 1.0 2.0 0.00 0.00 0.00 74 1005.8
20260903221005 85 267 1.0 2.0 0.00 0.00 0.00 74 1005.8
20260903220729 85 355 1.0 3.0 0.00 0.00 0.00 73 1005.8
20260903220233 86 335 1.0 3.0 0.00 0.00 0.00 72 1005.8
20260903215455 87 224 1.0 5.0 0.00 0.00 0.00 71 1005.7
20260903214939 87 183 1.0 5.0 0.00 0.00 0.00 71 1005.6
20260903214438 87 156 2.0 8.0 0.00 0.00 0.00 71 1005.6
20260903213938 86 129 3.0 8.0 0.00 0.00 0.00 72 1005.7
20260903213438 86 113 2.0 6.0 0.00 0.00 0.00 74 1005.8
20260903212936 85 178 2.0 5.0 0.00 0.00 0.00 74 1005.7
20260903212434 84 116 1.0 4.0 0.00 0.00 0.00 74 1005.8
20260903212010 84 355 1.0 5.0 0.00 0.00 0.00 74 1006.0
20260903211408 85 117 2.0 9.0 0.00 0.00 0.00 73 1005.8
20260903210416 84 165 2.0 9.0 0.00 0.00 0.00 73 1005.9
20260903205911 84 146 1.0 8.0 0.00 0.00 0.00 72 1006.0
20260903205411 84 146 1.0 8.0 0.00 0.00 0.00 71 1006.0
20260903205351 84 157 1.0 5.0 0.00 0.00 0.00 71 1005.9
20260903204404 85 151 2.0 10.0 0.00 0.00 0.00 70 1006.1
20260903203856 85 152 3.0 10.0 0.00 0.00 0.00 69 1006.1
20260903203359 86 96 3.0 11.0 0.00 0.00 0.00 66 1006.1
20260903202858 87 143 4.0 15.0 0.00 0.00 0.00 67 1006.2
20260903202356 86 105 4.0 15.0 0.00 0.00 0.00 67 1006.2
20260903201856 87 136 4.0 14.0 0.00 0.00 0.00 66 1006.3
20260903201616 87 169 4.0 9.0 0.00 0.00 0.00 65 1006.4
20260903200852 88 155 5.0 10.0 0.00 0.00 0.00 64 1006.5
20260903200353 88 132 5.0 14.0 0.00 0.00 0.00 65 1006.6
20260903195849 89 178 4.0 14.0 0.00 0.00 0.00 62 1006.6
20260903195350 89 122 5.0 12.0 0.00 0.00 0.00 63 1006.6
20260903194850 89 167 6.0 15.0 0.00 0.00 0.00 62 1006.7
20260903194347 89 61 5.0 15.0 0.00 0.00 0.00 62 1006.7
20260903193844 89 101 4.0 11.0 0.00 0.00 0.00 63 1006.7
20260903193342 89 136 5.0 12.0 0.00 0.00 0.00 63 1006.8
20260903192844 90 198 5.0 12.0 0.00 0.00 0.00 63 1006.8
20260903192344 90 121 4.0 12.0 0.00 0.00 0.00 63 1006.7
20260903192058 89 94 4.0 13.0 0.00 0.00 0.00 62 1006.6
20260903191339 89 165 5.0 13.0 0.00 0.00 0.00 64 1006.8
20260903190840 89 169 6.0 13.0 0.00 0.00 0.00 62 1006.9
20260903190558 89 145 7.0 15.0 0.00 0.00 0.00 62 1006.8
20260903185834 88 138 7.0 15.0 0.00 0.00 0.00 63 1006.9
20260903185336 88 190 5.0 12.0 0.00 0.00 0.00 64 1006.8
20260903185056 88 189 5.0 11.0 0.00 0.00 0.00 65 1006.9
20260903184326 87 210 6.0 11.0 0.00 0.00 0.00 65 1006.9
20260903183824 87 144 5.0 11.0 0.00 0.00 0.00 65 1007.0
20260903183326 86 132 4.0 13.0 0.00 0.00 0.00 67 1007.0
20260903182819 86 173 4.0 14.0 0.00 0.00 0.00 69 1007.0
20260903182319 86 212 5.0 14.0 0.00 0.00 0.00 68 1007.2
20260903182045 86 209 5.0 14.0 0.00 0.00 0.00 65 1007.3
20260903181542 87 150 4.0 14.0 0.00 0.00 0.00 62 1007.1
20260903181304 87 179 4.0 12.0 0.00 0.00 0.00 63 1006.9
20260903180317 87 159 4.0 12.0 0.00 0.00 0.00 62 1007.0
20260903180036 88 180 5.0 13.0 0.00 0.00 0.00 62 1007.0
20260903175311 88 167 5.0 13.0 0.00 0.00 0.00 60 1007.0
20260903174812 88 150 4.0 11.0 0.00 0.00 0.00 62 1007.2
20260903174311 88 141 3.0 11.0 0.00 0.00 0.00 64 1007.2
20260903173811 87 150 3.0 11.0 0.00 0.00 0.00 66 1007.2
20260903173525 87 151 3.0 10.0 0.00 0.00 0.00 64 1007.3
20260903172806 87 163 2.0 9.0 0.00 0.00 0.00 65 1007.3
20260903172306 87 194 3.0 11.0 0.00 0.00 0.00 66 1007.4
20260903171805 86 196 3.0 11.0 0.00 0.00 0.00 67 1007.6
20260903171242 86 127 2.0 11.0 0.00 0.00 0.00 66 1007.6
20260903170735 85 144 3.0 8.0 0.00 0.00 0.00 68 1007.8
20260903170230 85 139 3.0 9.0 0.00 0.00 0.00 68 1007.8
20260903165726 84 170 3.0 9.0 0.00 0.00 0.00 69 1007.8
20260903165223 84 128 2.0 7.0 0.00 0.00 0.00 72 1007.9
20260903164723 83 164 2.0 7.0 0.00 0.00 0.00 70 1007.9
20260903164224 82 136 2.0 7.0 0.00 0.00 0.00 71 1008.0
20260903163721 82 133 2.0 7.0 0.00 0.00 0.00 73 1008.0